Location: Ste-F�licit�
(48.8999°N, 67.3360°W)
Time: 05:52:01
(UTC-05:00)

DELFI C3 - Pass Details

Date: 30 October 2020
Orbit: 532 x 551 km, 97.4° (Epoch: 28 November)

Event Time Altitude Azimuth Distance (km) Brightness Sun altitude
Exits shadow 19:40:04 12° 2° (N) 1,722 ? -24.9°
Drops below altitude 10° 19:40:22 10° 0° (N) 1,839 ? -24.9°
Sets 19:42:35 0° 353° (N) 2,736 ? -25.3°
